Back to catalog

STARLINK-11680

AliveCommunicationsVLEO
NORAD 63554·PAYLOAD·🇺🇸 United States

Launched Apr 13, 2025 from Cape Canaveral Space Force Station

Loading…

Next Passes (next 24 hours)

TLE

FreshSource: CelesTrak SupGP

Epoch: Sep 15, 2026, 02:37 UTC

1 63554C 25075G   26258.10951389  .00052726  00000+0  40920-3 0  2588
2 63554  43.0005  92.2020 0001716 274.6190 229.7034 15.70830603    17

Track STARLINK-11680 in real time with AllMySat

Download on the App Store